Change the Weather History Date:

Sunday, October 9, 2011

  Actual Average Record
Temperature  
Mean Temperature 74 °F 60 °F  
Max Temperature 85 °F 68 °F 85 °F (2011)
Min Temperature 62 °F 53 °F 40 °F (1978)
Degree Days  
Heating Degree Days 0 6  
Month to date heating degree days 44 42  
Since 1 July heating degree days 63 77  
Cooling Degree Days 9 1  
Month to date cooling degree days 12 14  
Year to date cooling degree days 1363 1204  
Growing Degree Days 23 (Base 50)    
Moisture  
Dew Point 51 °F    
Average Humidity 48    
Maximum Humidity 67    
Minimum Humidity 29    
Precipitation  
Precipitation 0.00 in 0.13 in 2.00 in (1977)
Month to date precipitation 0.34 1.12  
Year to date precipitation 54.35 35.10  
Snow  
Snow 0.00 in 0.00 in - ()
Month to date snowfall 0.0 0.0  
Since 1 July snowfall 0.0 0.0  
Snow Depth 0.00 in    
Sea Level Pressure  
Sea Level Pressure 30.34 in    
Wind  
Wind Speed 4 mph (WNW)    
Max Wind Speed 9 mph    
Max Gust Speed 12 mph    
Visibility 10 miles    
Events      
T = Trace of Precipitation, MM = Missing Value Source: NWS Daily Summary

Daily Weather History Graph

Daily Weather History Graph

Search for Another Location

Airport or City:

Trip Planner

Search our weather history database for the weather conditions in past years. The results will help you decide how hot, cold, wet, or windy it might be!

Date:

Astronomy

Oct. 09, 2011 Rise Set
Actual Time 7:00 AM EDT 6:24 PM EDT
Civil Twilight 6:32 AM EDT 6:52 PM EDT
Nautical Twilight 6:00 AM EDT 7:24 PM EDT
Astronomical Twilight 5:29 AM EDT 7:55 PM EDT
Moon 5:01 PM EDT (10/9) 4:41 AM EDT (10/9)
Length of Visible Light 12h 19m
Length of Day
11h 24m
Waxing Gibbous, 95% of the Moon is Illuminated
Oct 9
Waxing Gibbous
Oct 11
Full
Oct 19
Last Quarter
Oct 26
New
Nov 2
First Quarter

Hourly Weather History & Observations

Time (EDT) Temp. Dew Point Humidity Pressure Visibility Wind Dir Wind Speed Gust Speed Precip Events Conditions
12:51 AM 66.9 °F 50.0 °F 54% 30.39 in 10.0 mi Calm Calm - N/A   Clear
2:51 AM 66.0 °F 51.1 °F 59% 30.39 in 10.0 mi West 3.5 mph - N/A   Clear
3:51 AM 64.0 °F 52.0 °F 65% 30.39 in 10.0 mi NW 3.5 mph - N/A   Clear
4:51 AM 63.0 °F 51.1 °F 65% 30.39 in 10.0 mi WNW 3.5 mph - N/A   Clear
5:51 AM 62.1 °F 51.1 °F 67% 30.39 in 10.0 mi Calm Calm - N/A   Clear
6:51 AM 62.1 °F 50.0 °F 65% 30.39 in 10.0 mi Calm Calm - N/A   Partly Cloudy
7:51 AM 64.0 °F 50.0 °F 60% 30.40 in 10.0 mi WNW 3.5 mph - N/A   Clear
8:51 AM 66.0 °F 50.0 °F 56% 30.41 in 10.0 mi WNW 5.8 mph - N/A   Clear
9:51 AM 69.8 °F 51.8 °F 53% 30.41 in 10.0 mi WNW 8.1 mph - N/A   Partly Cloudy
10:51 AM 73.0 °F 51.1 °F 46% 30.40 in 10.0 mi NW 6.9 mph - N/A   Partly Cloudy
11:51 AM 75.9 °F 51.1 °F 42% 30.38 in 10.0 mi Calm Calm - N/A   Partly Cloudy
12:51 PM 80.1 °F 51.1 °F 36% 30.36 in 10.0 mi WNW 4.6 mph - N/A   Clear
1:51 PM 82.0 °F 51.1 °F 34% 30.33 in 10.0 mi NW 4.6 mph - N/A   Clear
2:51 PM 84.0 °F 48.9 °F 29% 30.31 in 10.0 mi Calm Calm - N/A   Clear
3:51 PM 84.0 °F 50.0 °F 31% 30.29 in 10.0 mi NW 6.9 mph - N/A   Clear
4:51 PM 84.0 °F 51.1 °F 32% 30.29 in 10.0 mi NW 4.6 mph - N/A   Clear
5:51 PM 79.0 °F 53.1 °F 40% 30.29 in 10.0 mi WNW 5.8 mph - N/A   Partly Cloudy
6:51 PM 78.8 °F 50.0 °F 36% 30.29 in 10.0 mi Calm Calm - N/A   Partly Cloudy
7:51 PM 78.1 °F 50.0 °F 37% 30.29 in 10.0 mi Calm Calm - N/A   Partly Cloudy
8:51 PM 75.0 °F 53.1 °F 46% 30.29 in 10.0 mi Calm Calm - N/A   Clear
9:51 PM 72.0 °F 55.9 °F 57% 30.28 in 10.0 mi WNW 4.6 mph - N/A   Clear
10:51 PM 71.1 °F 55.9 °F 59% 30.29 in 10.0 mi NW 6.9 mph - N/A   Clear
11:51 PM 71.1 °F 54.0 °F 55% 30.28 in 10.0 mi NW 5.8 mph - N/A   Clear